Retour au catalogue

FREGAT DEB

LostUNKNOWN
NORAD 46104·DEBRIS·🇷🇺 Russia

Lancé Jul 18, 2011 depuis Baikonur Cosmodrome

Loading…

Prochains Passages (prochaines 24 heures)

TLE

PériméSource: Space-Track

Époque: Aug 10, 2020, 06:54 UTC

1 46104U 11037JP  20223.28752573  .00042808  00000-0  37886-1 0  9990
2 46104  51.1389 198.3423 1343861 225.9440 122.1619 11.91224560   504

Suivez FREGAT DEB en temps réel avec AllMySat

Download on the App Store